Year,Month,Day,Hour,Minute,Value (Times are PST for temperature in C)
2014,07,13,00,00,18.20
2014,07,13,00,01,18.20
2014,07,13,00,02,18.20
2014,07,13,00,03,18.10
2014,07,13,00,04,18.10
2014,07,13,00,05,18.10
2014,07,13,00,06,18.00
2014,07,13,00,07,18.00
2014,07,13,00,08,17.90
2014,07,13,00,09,17.80
2014,07,13,00,10,17.80
2014,07,13,00,11,17.70
2014,07,13,00,12,17.60
2014,07,13,00,13,17.60
2014,07,13,00,14,17.50
2014,07,13,00,15,17.40
2014,07,13,00,16,17.40
2014,07,13,00,17,17.30
2014,07,13,00,18,17.30
2014,07,13,00,19,17.20
2014,07,13,00,20,17.20
2014,07,13,00,21,17.20
2014,07,13,00,22,17.10
2014,07,13,00,23,17.10
2014,07,13,00,24,17.10
2014,07,13,00,25,17.00
2014,07,13,00,26,17.00
2014,07,13,00,27,17.00
2014,07,13,00,28,16.90
2014,07,13,00,29,16.90
2014,07,13,00,30,16.80
2014,07,13,00,31,16.80
2014,07,13,00,32,16.80
2014,07,13,00,33,16.70
2014,07,13,00,34,16.70
2014,07,13,00,35,16.60
2014,07,13,00,36,16.60
2014,07,13,00,37,16.60
2014,07,13,00,38,16.60
2014,07,13,00,39,16.60
2014,07,13,00,40,16.60
2014,07,13,00,41,16.60
2014,07,13,00,42,16.60
2014,07,13,00,43,16.60
2014,07,13,00,44,16.60
2014,07,13,00,45,16.60
2014,07,13,00,46,16.60
2014,07,13,00,47,16.60
2014,07,13,00,48,16.60
2014,07,13,00,49,16.60
2014,07,13,00,50,16.60
2014,07,13,00,51,16.60
2014,07,13,00,52,16.60
2014,07,13,00,53,16.60
2014,07,13,00,54,16.60
2014,07,13,00,55,16.60
2014,07,13,00,56,16.50
2014,07,13,00,57,16.50
2014,07,13,00,58,16.50
2014,07,13,00,59,16.50
2014,07,13,01,00,16.40
2014,07,13,01,01,16.40
2014,07,13,01,02,16.40
2014,07,13,01,03,16.40
2014,07,13,01,04,16.40
2014,07,13,01,05,16.50
2014,07,13,01,06,16.50
2014,07,13,01,07,16.50
2014,07,13,01,08,16.50
2014,07,13,01,09,16.50
2014,07,13,01,10,16.50
2014,07,13,01,11,16.50
2014,07,13,01,12,16.50
2014,07,13,01,13,16.50
2014,07,13,01,14,16.40
2014,07,13,01,15,16.40
2014,07,13,01,16,16.40
2014,07,13,01,17,16.40
2014,07,13,01,18,16.40
2014,07,13,01,19,16.40
2014,07,13,01,20,16.40
2014,07,13,01,21,16.40
2014,07,13,01,22,16.40
2014,07,13,01,23,16.40
2014,07,13,01,24,16.30
2014,07,13,01,25,16.30
2014,07,13,01,26,16.30
2014,07,13,01,27,16.20
2014,07,13,01,28,16.20
2014,07,13,01,29,16.20
2014,07,13,01,30,16.10
2014,07,13,01,31,16.10
2014,07,13,01,32,16.10
2014,07,13,01,33,16.10
2014,07,13,01,34,16.10
2014,07,13,01,35,16.10
2014,07,13,01,36,16.10
2014,07,13,01,37,16.00
2014,07,13,01,38,16.00
2014,07,13,01,39,16.00
2014,07,13,01,40,15.90
2014,07,13,01,41,15.90
2014,07,13,01,42,15.90
2014,07,13,01,43,15.90
2014,07,13,01,44,15.90
2014,07,13,01,45,15.90
2014,07,13,01,46,15.90
2014,07,13,01,47,15.90
2014,07,13,01,48,15.90
2014,07,13,01,49,15.80
2014,07,13,01,50,15.80
2014,07,13,01,51,15.80
2014,07,13,01,52,15.80
2014,07,13,01,53,15.80
2014,07,13,01,54,15.80
2014,07,13,01,55,15.80
2014,07,13,01,56,15.80
2014,07,13,01,57,15.70
2014,07,13,01,58,15.70
2014,07,13,01,59,15.70
2014,07,13,02,00,15.70
2014,07,13,02,01,15.70
2014,07,13,02,02,15.60
2014,07,13,02,03,15.60
2014,07,13,02,04,15.60
2014,07,13,02,05,15.60
2014,07,13,02,06,15.50
2014,07,13,02,07,15.50
2014,07,13,02,08,15.40
2014,07,13,02,09,15.40
2014,07,13,02,10,15.40
2014,07,13,02,11,15.30
2014,07,13,02,12,15.30
2014,07,13,02,13,15.30
2014,07,13,02,14,15.30
2014,07,13,02,15,15.20
2014,07,13,02,16,15.20
2014,07,13,02,17,15.20
2014,07,13,02,18,15.20
2014,07,13,02,19,15.20
2014,07,13,02,20,15.20
2014,07,13,02,21,15.20
2014,07,13,02,22,15.20
2014,07,13,02,23,15.20
2014,07,13,02,24,15.20
2014,07,13,02,25,15.10
2014,07,13,02,26,15.10
2014,07,13,02,27,15.10
2014,07,13,02,28,15.10
2014,07,13,02,29,15.10
2014,07,13,02,30,15.10
2014,07,13,02,31,15.10
2014,07,13,02,32,15.10
2014,07,13,02,33,15.10
2014,07,13,02,34,15.00
2014,07,13,02,35,15.00
2014,07,13,02,36,15.00
2014,07,13,02,37,14.90
2014,07,13,02,38,14.90
2014,07,13,02,39,14.90
2014,07,13,02,40,14.90
2014,07,13,02,41,14.90
2014,07,13,02,42,14.90
2014,07,13,02,43,14.90
2014,07,13,02,44,14.90
2014,07,13,02,45,14.90
2014,07,13,02,46,14.80
2014,07,13,02,47,14.80
2014,07,13,02,48,14.80
2014,07,13,02,49,14.80
2014,07,13,02,50,14.80
2014,07,13,02,51,14.80
2014,07,13,02,52,14.80
2014,07,13,02,53,14.80
2014,07,13,02,54,14.80
2014,07,13,02,55,14.80
2014,07,13,02,56,14.70
2014,07,13,02,57,14.70
2014,07,13,02,58,14.70
2014,07,13,02,59,14.70
2014,07,13,03,00,14.70
2014,07,13,03,01,14.70
2014,07,13,03,02,14.60
2014,07,13,03,03,14.60
2014,07,13,03,04,14.60
2014,07,13,03,05,14.60
2014,07,13,03,06,14.60
2014,07,13,03,07,14.60
2014,07,13,03,08,14.50
2014,07,13,03,09,14.50
2014,07,13,03,10,14.50
2014,07,13,03,11,14.50
2014,07,13,03,12,14.50
2014,07,13,03,13,14.50
2014,07,13,03,14,14.40
2014,07,13,03,15,14.40
2014,07,13,03,16,14.40
2014,07,13,03,17,14.40
2014,07,13,03,18,14.40
2014,07,13,03,19,14.40
2014,07,13,03,20,14.40
2014,07,13,03,21,14.40
2014,07,13,03,22,14.40
2014,07,13,03,23,14.40
2014,07,13,03,24,14.40
2014,07,13,03,25,14.40
2014,07,13,03,26,14.40
2014,07,13,03,27,14.30
2014,07,13,03,28,14.30
2014,07,13,03,29,14.30
2014,07,13,03,30,14.30
2014,07,13,03,31,14.30
2014,07,13,03,32,14.30
2014,07,13,03,33,14.30
2014,07,13,03,34,14.30
2014,07,13,03,35,14.30
2014,07,13,03,36,14.30
2014,07,13,03,37,14.20
2014,07,13,03,38,14.20
2014,07,13,03,39,14.20
2014,07,13,03,40,14.20
2014,07,13,03,41,14.30
2014,07,13,03,42,14.30
2014,07,13,03,43,14.30
2014,07,13,03,44,14.30
2014,07,13,03,45,14.30
2014,07,13,03,46,14.40
2014,07,13,03,47,14.40
2014,07,13,03,48,14.40
2014,07,13,03,49,14.40
2014,07,13,03,50,14.40
2014,07,13,03,51,14.40
2014,07,13,03,52,14.40
2014,07,13,03,53,14.40
2014,07,13,03,54,14.40
2014,07,13,03,55,14.40
2014,07,13,03,56,14.40
2014,07,13,03,57,14.40
2014,07,13,03,58,14.40
2014,07,13,03,59,14.40
2014,07,13,04,00,14.40
2014,07,13,04,01,14.40
2014,07,13,04,02,14.40
2014,07,13,04,03,14.40
2014,07,13,04,04,14.50
2014,07,13,04,05,14.50
2014,07,13,04,06,14.40
2014,07,13,04,07,14.40
2014,07,13,04,08,14.40
2014,07,13,04,09,14.40
2014,07,13,04,10,14.40
2014,07,13,04,11,14.40
2014,07,13,04,12,14.40
2014,07,13,04,13,14.40
2014,07,13,04,14,14.40
2014,07,13,04,15,14.30
2014,07,13,04,16,14.30
2014,07,13,04,17,14.30
2014,07,13,04,18,14.30
2014,07,13,04,19,14.30
2014,07,13,04,20,14.30
2014,07,13,04,21,14.30
2014,07,13,04,22,14.20
2014,07,13,04,23,14.20
2014,07,13,04,24,14.20
2014,07,13,04,25,14.20
2014,07,13,04,26,14.20
2014,07,13,04,27,14.20
2014,07,13,04,28,14.20
2014,07,13,04,29,14.20
2014,07,13,04,30,14.20
2014,07,13,04,31,14.20
2014,07,13,04,32,14.20
2014,07,13,04,33,14.20
2014,07,13,04,34,14.20
2014,07,13,04,35,14.20
2014,07,13,04,36,14.20
2014,07,13,04,37,14.10
2014,07,13,04,38,14.10
2014,07,13,04,39,14.10
2014,07,13,04,40,14.10
2014,07,13,04,41,14.10
2014,07,13,04,42,14.10
2014,07,13,04,43,14.10
2014,07,13,04,44,14.10
2014,07,13,04,45,14.10
2014,07,13,04,46,14.10
2014,07,13,04,47,14.00
2014,07,13,04,48,14.00
2014,07,13,04,49,14.00
2014,07,13,04,50,14.00
2014,07,13,04,51,13.90
2014,07,13,04,52,13.90
2014,07,13,04,53,13.90
2014,07,13,04,54,13.90
2014,07,13,04,55,13.90
2014,07,13,04,56,13.90
2014,07,13,04,57,13.90
2014,07,13,04,58,13.90
2014,07,13,04,59,13.90
2014,07,13,05,00,13.90
2014,07,13,05,01,13.90
2014,07,13,05,02,13.90
2014,07,13,05,03,13.90
2014,07,13,05,04,13.90
2014,07,13,05,05,13.80
2014,07,13,05,06,13.80
2014,07,13,05,07,13.80
2014,07,13,05,08,13.80
2014,07,13,05,09,13.80
2014,07,13,05,10,13.80
2014,07,13,05,11,13.80
2014,07,13,05,12,13.80
2014,07,13,05,13,13.80
2014,07,13,05,14,13.80
2014,07,13,05,15,13.80
2014,07,13,05,16,13.80
2014,07,13,05,17,13.80
2014,07,13,05,18,13.80
2014,07,13,05,19,13.80
2014,07,13,05,20,13.80
2014,07,13,05,21,13.90
2014,07,13,05,22,13.90
2014,07,13,05,23,13.90
2014,07,13,05,24,13.90
2014,07,13,05,25,13.90
2014,07,13,05,26,13.90
2014,07,13,05,27,13.90
2014,07,13,05,28,13.90
2014,07,13,05,29,13.90
2014,07,13,05,30,13.90
2014,07,13,05,31,13.80
2014,07,13,05,32,13.90
2014,07,13,05,33,13.80
2014,07,13,05,34,13.80
2014,07,13,05,35,13.90
2014,07,13,05,36,13.90
2014,07,13,05,37,13.90
2014,07,13,05,38,13.90
2014,07,13,05,39,13.90
2014,07,13,05,40,13.90
2014,07,13,05,41,13.90
2014,07,13,05,42,13.90
2014,07,13,05,43,13.90
2014,07,13,05,44,13.90
2014,07,13,05,45,13.90
2014,07,13,05,46,13.90
2014,07,13,05,47,13.90
2014,07,13,05,48,13.90
2014,07,13,05,49,13.90
2014,07,13,05,50,13.90
2014,07,13,05,51,14.00
2014,07,13,05,52,14.00
2014,07,13,05,53,14.00
2014,07,13,05,54,13.90
2014,07,13,05,55,13.90
2014,07,13,05,56,13.90
2014,07,13,05,57,13.90
2014,07,13,05,58,13.90
2014,07,13,05,59,13.90
2014,07,13,06,00,13.90
2014,07,13,06,01,13.90
2014,07,13,06,02,13.90
2014,07,13,06,03,13.90
2014,07,13,06,04,13.90
2014,07,13,06,05,13.90
2014,07,13,06,06,13.90
2014,07,13,06,07,13.90
2014,07,13,06,08,13.90
2014,07,13,06,09,13.80
2014,07,13,06,10,13.80
2014,07,13,06,11,13.80
2014,07,13,06,12,13.80
2014,07,13,06,13,13.80
2014,07,13,06,14,13.90
2014,07,13,06,15,13.90
2014,07,13,06,16,13.90
2014,07,13,06,17,13.90
2014,07,13,06,18,13.90
2014,07,13,06,19,13.90
2014,07,13,06,20,13.90
2014,07,13,06,21,14.00
2014,07,13,06,22,14.00
2014,07,13,06,23,14.10
2014,07,13,06,24,14.10
2014,07,13,06,25,14.10
2014,07,13,06,26,14.10
2014,07,13,06,27,14.10
2014,07,13,06,28,14.20
2014,07,13,06,29,14.20
2014,07,13,06,30,14.20
2014,07,13,06,31,14.30
2014,07,13,06,32,14.30
2014,07,13,06,33,14.40
2014,07,13,06,34,14.40
2014,07,13,06,35,14.50
2014,07,13,06,36,14.60
2014,07,13,06,37,14.60
2014,07,13,06,38,14.70
2014,07,13,06,39,14.70
2014,07,13,06,40,14.70
2014,07,13,06,41,14.80
2014,07,13,06,42,14.80
2014,07,13,06,43,14.90
2014,07,13,06,44,14.90
2014,07,13,06,45,15.00
2014,07,13,06,46,15.00
2014,07,13,06,47,15.10
2014,07,13,06,48,15.10
2014,07,13,06,49,15.20
2014,07,13,06,50,15.20
2014,07,13,06,51,15.20
2014,07,13,06,52,15.30
2014,07,13,06,53,15.30
2014,07,13,06,54,15.40
2014,07,13,06,55,15.40
2014,07,13,06,56,15.50
2014,07,13,06,57,15.60
2014,07,13,06,58,15.70
2014,07,13,06,59,15.80
2014,07,13,07,00,15.90
2014,07,13,07,01,16.00
2014,07,13,07,02,16.10
2014,07,13,07,03,16.20
2014,07,13,07,04,16.30
2014,07,13,07,05,16.40
2014,07,13,07,06,16.50
2014,07,13,07,07,16.60
2014,07,13,07,08,16.70
2014,07,13,07,09,16.80
2014,07,13,07,10,16.80
2014,07,13,07,11,16.90
2014,07,13,07,12,16.90
2014,07,13,07,13,17.00
2014,07,13,07,14,17.10
2014,07,13,07,15,17.10
2014,07,13,07,16,17.10
2014,07,13,07,17,17.10
2014,07,13,07,18,17.10
2014,07,13,07,19,17.20
2014,07,13,07,20,17.20
2014,07,13,07,21,17.20
2014,07,13,07,22,17.20
2014,07,13,07,23,17.20
2014,07,13,07,24,17.30
2014,07,13,07,25,17.30
2014,07,13,07,26,17.30
2014,07,13,07,27,17.30
2014,07,13,07,28,17.40
2014,07,13,07,29,17.40
2014,07,13,07,30,17.50
2014,07,13,07,31,17.50
2014,07,13,07,32,17.60
2014,07,13,07,33,17.60
2014,07,13,07,34,17.70
2014,07,13,07,35,17.70
2014,07,13,07,36,17.70
2014,07,13,07,37,17.70
2014,07,13,07,38,17.80
2014,07,13,07,39,17.80
2014,07,13,07,40,17.80
2014,07,13,07,41,17.90
2014,07,13,07,42,17.90
2014,07,13,07,43,18.00
2014,07,13,07,44,18.00
2014,07,13,07,45,18.10
2014,07,13,07,46,18.20
2014,07,13,07,47,18.30
2014,07,13,07,48,18.30
2014,07,13,07,49,18.40
2014,07,13,07,50,18.50
2014,07,13,07,51,18.60
2014,07,13,07,52,18.70
2014,07,13,07,53,18.70
2014,07,13,07,54,18.80
2014,07,13,07,55,18.80
2014,07,13,07,56,18.80
2014,07,13,07,57,18.90
2014,07,13,07,58,18.90
2014,07,13,07,59,18.90
2014,07,13,08,00,18.90
2014,07,13,08,01,18.90
2014,07,13,08,02,18.90
2014,07,13,08,03,19.00
2014,07,13,08,04,19.00
2014,07,13,08,05,19.00
2014,07,13,08,06,19.00
2014,07,13,08,07,19.10
2014,07,13,08,08,19.10
2014,07,13,08,09,19.10
2014,07,13,08,10,19.20
2014,07,13,08,11,19.30
2014,07,13,08,12,19.30
2014,07,13,08,13,19.30
2014,07,13,08,14,19.40
2014,07,13,08,15,19.40
2014,07,13,08,16,19.50
2014,07,13,08,17,19.50
2014,07,13,08,18,19.60
2014,07,13,08,19,19.70
2014,07,13,08,20,19.80
2014,07,13,08,21,19.90
2014,07,13,08,22,20.10
2014,07,13,08,23,20.20
2014,07,13,08,24,20.20
2014,07,13,08,25,20.30
2014,07,13,08,26,20.30
2014,07,13,08,27,20.40
2014,07,13,08,28,20.50
2014,07,13,08,29,20.50
2014,07,13,08,30,20.60
2014,07,13,08,31,20.70
2014,07,13,08,32,20.80
2014,07,13,08,33,20.80
2014,07,13,08,34,20.90
2014,07,13,08,35,20.90
2014,07,13,08,36,21.00
2014,07,13,08,37,21.10
2014,07,13,08,38,21.20
2014,07,13,08,39,21.30
2014,07,13,08,40,21.40
2014,07,13,08,41,21.40
2014,07,13,08,42,21.40
2014,07,13,08,43,21.40
2014,07,13,08,44,21.40
2014,07,13,08,45,21.40
2014,07,13,08,46,21.40
2014,07,13,08,47,21.50
2014,07,13,08,48,21.50
2014,07,13,08,49,21.50
2014,07,13,08,50,21.60
2014,07,13,08,51,21.60
2014,07,13,08,52,21.60
2014,07,13,08,53,21.70
2014,07,13,08,54,21.80
2014,07,13,08,55,21.90
2014,07,13,08,56,22.10
2014,07,13,08,57,22.20
2014,07,13,08,58,22.20
2014,07,13,08,59,22.30
2014,07,13,09,00,22.30
2014,07,13,09,01,22.30
2014,07,13,09,02,22.30
2014,07,13,09,03,22.30
2014,07,13,09,04,22.30
2014,07,13,09,05,22.40
2014,07,13,09,06,22.40
2014,07,13,09,07,22.40
2014,07,13,09,08,22.40
2014,07,13,09,09,22.30
2014,07,13,09,10,22.30
2014,07,13,09,11,22.30
2014,07,13,09,12,22.30
2014,07,13,09,13,22.30
2014,07,13,09,14,22.30
2014,07,13,09,15,22.30
2014,07,13,09,16,22.40
2014,07,13,09,17,22.30
2014,07,13,09,18,22.30
2014,07,13,09,19,22.40
2014,07,13,09,20,22.40
2014,07,13,09,21,22.40
2014,07,13,09,22,22.50
2014,07,13,09,23,22.50
2014,07,13,09,24,22.50
2014,07,13,09,25,22.40
2014,07,13,09,26,22.40
2014,07,13,09,27,22.40
2014,07,13,09,28,22.50
2014,07,13,09,29,22.50
2014,07,13,09,30,22.60
2014,07,13,09,31,22.60
2014,07,13,09,32,22.70
2014,07,13,09,33,22.70
2014,07,13,09,34,22.70
2014,07,13,09,35,22.80
2014,07,13,09,36,22.80
2014,07,13,09,37,22.80
2014,07,13,09,38,22.80
2014,07,13,09,39,22.80
2014,07,13,09,40,22.90
2014,07,13,09,41,22.90
2014,07,13,09,42,22.90
2014,07,13,09,43,23.00
2014,07,13,09,44,23.00
2014,07,13,09,45,23.10
2014,07,13,09,46,23.20
2014,07,13,09,47,23.20
2014,07,13,09,48,23.20
2014,07,13,09,49,23.30
2014,07,13,09,50,23.30
2014,07,13,09,51,23.30
2014,07,13,09,52,23.30
2014,07,13,09,53,23.30
2014,07,13,09,54,23.20
2014,07,13,09,55,23.20
2014,07,13,09,56,23.20
2014,07,13,09,57,23.10
2014,07,13,09,58,23.10
2014,07,13,09,59,23.10
2014,07,13,10,00,23.10
2014,07,13,10,01,23.10
2014,07,13,10,02,23.20
2014,07,13,10,03,23.30
2014,07,13,10,04,23.30
2014,07,13,10,05,23.40
2014,07,13,10,06,23.40
2014,07,13,10,07,23.50
2014,07,13,10,08,23.50
2014,07,13,10,09,23.50
2014,07,13,10,10,23.50
2014,07,13,10,11,23.50
2014,07,13,10,12,23.50
2014,07,13,10,13,23.40
2014,07,13,10,14,23.40
2014,07,13,10,15,23.40
2014,07,13,10,16,23.30
2014,07,13,10,17,23.40
2014,07,13,10,18,23.40
2014,07,13,10,19,23.40
2014,07,13,10,20,23.50
2014,07,13,10,21,23.50
2014,07,13,10,22,23.60
2014,07,13,10,23,23.60
2014,07,13,10,24,23.60
2014,07,13,10,25,23.60
2014,07,13,10,26,23.60
2014,07,13,10,27,23.60
2014,07,13,10,28,23.60
2014,07,13,10,29,23.50
2014,07,13,10,30,23.50
2014,07,13,10,31,23.50
2014,07,13,10,32,23.50
2014,07,13,10,33,23.60
2014,07,13,10,34,23.60
2014,07,13,10,35,23.70
2014,07,13,10,36,23.70
2014,07,13,10,37,23.70
2014,07,13,10,38,23.80
2014,07,13,10,39,23.80
2014,07,13,10,40,23.90
2014,07,13,10,41,23.90
2014,07,13,10,42,23.90
2014,07,13,10,43,23.90
2014,07,13,10,44,23.90
2014,07,13,10,45,23.90
2014,07,13,10,46,23.90
2014,07,13,10,47,23.90
2014,07,13,10,48,23.90
2014,07,13,10,49,23.80
2014,07,13,10,50,23.80
2014,07,13,10,51,23.80
2014,07,13,10,52,23.90
2014,07,13,10,53,23.90
2014,07,13,10,54,23.90
2014,07,13,10,55,24.00
2014,07,13,10,56,24.00
2014,07,13,10,57,24.10
2014,07,13,10,58,24.10
2014,07,13,10,59,24.20
2014,07,13,11,00,24.20
2014,07,13,11,01,24.30
2014,07,13,11,02,24.30
2014,07,13,11,03,24.30
2014,07,13,11,04,24.30
2014,07,13,11,05,24.30
2014,07,13,11,06,24.30
2014,07,13,11,07,24.30
2014,07,13,11,08,24.20
2014,07,13,11,09,24.20
2014,07,13,11,10,24.30
2014,07,13,11,11,24.30
2014,07,13,11,12,24.40
2014,07,13,11,13,24.40
2014,07,13,11,14,24.50
2014,07,13,11,15,24.60
2014,07,13,11,16,24.60
2014,07,13,11,17,24.60
2014,07,13,11,18,24.70
2014,07,13,11,19,24.70
2014,07,13,11,20,24.70
2014,07,13,11,21,24.70
2014,07,13,11,22,24.70
2014,07,13,11,23,24.80
2014,07,13,11,24,24.80
2014,07,13,11,25,24.80
2014,07,13,11,26,24.80
2014,07,13,11,27,24.80
2014,07,13,11,28,24.80
2014,07,13,11,29,24.80
2014,07,13,11,30,24.80
2014,07,13,11,31,24.80
2014,07,13,11,32,24.80
2014,07,13,11,33,24.80
2014,07,13,11,34,24.80
2014,07,13,11,35,24.80
2014,07,13,11,36,24.80
2014,07,13,11,37,24.80
2014,07,13,11,38,24.80
2014,07,13,11,39,24.70
2014,07,13,11,40,24.60
2014,07,13,11,41,24.50
2014,07,13,11,42,24.50
2014,07,13,11,43,24.40
2014,07,13,11,44,24.40
2014,07,13,11,45,24.40
2014,07,13,11,46,24.40
2014,07,13,11,47,24.50
2014,07,13,11,48,24.50
2014,07,13,11,49,24.60
2014,07,13,11,50,24.60
2014,07,13,11,51,24.60
2014,07,13,11,52,24.70
2014,07,13,11,53,24.70
2014,07,13,11,54,24.80
2014,07,13,11,55,24.80
2014,07,13,11,56,24.80
2014,07,13,11,57,24.80
2014,07,13,11,58,24.80
2014,07,13,11,59,24.90
2014,07,13,12,00,24.90
2014,07,13,12,01,24.90
2014,07,13,12,02,25.00
2014,07,13,12,03,25.00
2014,07,13,12,04,25.10
2014,07,13,12,05,25.20
2014,07,13,12,06,25.20
2014,07,13,12,07,25.20
2014,07,13,12,08,25.30
2014,07,13,12,09,25.30
2014,07,13,12,10,25.30
2014,07,13,12,11,25.40
2014,07,13,12,12,25.40
2014,07,13,12,13,25.50
2014,07,13,12,14,25.60
2014,07,13,12,15,25.80
2014,07,13,12,16,25.90
2014,07,13,12,17,26.00
2014,07,13,12,18,26.20
2014,07,13,12,19,26.30
2014,07,13,12,20,26.30
2014,07,13,12,21,26.40
2014,07,13,12,22,26.40
2014,07,13,12,23,26.50
2014,07,13,12,24,26.60
2014,07,13,12,25,26.70
2014,07,13,12,26,26.70
2014,07,13,12,27,26.80
2014,07,13,12,28,26.80
2014,07,13,12,29,26.90
2014,07,13,12,30,26.90
2014,07,13,12,31,27.00
2014,07,13,12,32,27.10
2014,07,13,12,33,27.20
2014,07,13,12,34,27.30
2014,07,13,12,35,27.40
2014,07,13,12,36,27.50
2014,07,13,12,37,27.70
2014,07,13,12,38,27.70
2014,07,13,12,39,27.80
2014,07,13,12,40,27.80
2014,07,13,12,41,27.90
2014,07,13,12,42,27.80
2014,07,13,12,43,27.80
2014,07,13,12,44,27.70
2014,07,13,12,45,27.60
2014,07,13,12,46,27.60
2014,07,13,12,47,27.60
2014,07,13,12,48,27.50
2014,07,13,12,49,27.30
2014,07,13,12,50,27.10
2014,07,13,12,51,27.00
2014,07,13,12,52,26.70
2014,07,13,12,53,26.60
2014,07,13,12,54,26.40
2014,07,13,12,55,26.30
2014,07,13,12,56,26.20
2014,07,13,12,57,26.20
2014,07,13,12,58,26.30
2014,07,13,12,59,26.40
2014,07,13,13,00,26.40
2014,07,13,13,01,26.50
2014,07,13,13,02,26.50
2014,07,13,13,03,26.50
2014,07,13,13,04,26.60
2014,07,13,13,05,26.70
2014,07,13,13,06,26.90
2014,07,13,13,07,27.00
2014,07,13,13,08,27.00
2014,07,13,13,09,27.10
2014,07,13,13,10,27.30
2014,07,13,13,11,27.40
2014,07,13,13,12,27.50
2014,07,13,13,13,27.60
2014,07,13,13,14,27.70
2014,07,13,13,15,27.70
2014,07,13,13,16,27.70
2014,07,13,13,17,27.70
2014,07,13,13,18,27.70
2014,07,13,13,19,27.80
2014,07,13,13,20,27.80
2014,07,13,13,21,27.80
2014,07,13,13,22,27.90
2014,07,13,13,23,27.90
2014,07,13,13,24,27.90
2014,07,13,13,25,27.90
2014,07,13,13,26,27.90
2014,07,13,13,27,27.90
2014,07,13,13,28,27.90
2014,07,13,13,29,27.90
2014,07,13,13,30,28.00
2014,07,13,13,31,28.00
2014,07,13,13,32,28.00
2014,07,13,13,33,27.90
2014,07,13,13,34,27.90
2014,07,13,13,35,27.90
2014,07,13,13,36,27.80
2014,07,13,13,37,27.70
2014,07,13,13,38,27.70
2014,07,13,13,39,27.60
2014,07,13,13,40,27.60
2014,07,13,13,41,27.60
2014,07,13,13,42,27.60
2014,07,13,13,43,27.70
2014,07,13,13,44,27.70
2014,07,13,13,45,27.80
2014,07,13,13,46,27.80
2014,07,13,13,47,27.80
2014,07,13,13,48,27.70
2014,07,13,13,49,27.70
2014,07,13,13,50,27.70
2014,07,13,13,51,27.70
2014,07,13,13,52,27.70
2014,07,13,13,53,27.60
2014,07,13,13,54,27.60
2014,07,13,13,55,27.60
2014,07,13,13,56,27.50
2014,07,13,13,57,27.50
2014,07,13,13,58,27.40
2014,07,13,13,59,27.40
2014,07,13,14,00,27.40
2014,07,13,14,01,27.40
2014,07,13,14,02,27.40
2014,07,13,14,03,27.40
2014,07,13,14,04,27.40
2014,07,13,14,05,27.50
2014,07,13,14,06,27.50
2014,07,13,14,07,27.60
2014,07,13,14,08,27.70
2014,07,13,14,09,27.70
2014,07,13,14,10,27.70
2014,07,13,14,11,27.80
2014,07,13,14,12,27.70
2014,07,13,14,13,27.70
2014,07,13,14,14,27.70
2014,07,13,14,15,27.70
2014,07,13,14,16,27.70
2014,07,13,14,17,27.70
2014,07,13,14,18,27.70
2014,07,13,14,19,27.70
2014,07,13,14,20,27.70
2014,07,13,14,21,27.70
2014,07,13,14,22,27.80
2014,07,13,14,23,27.90
2014,07,13,14,24,28.00
2014,07,13,14,25,28.10
2014,07,13,14,26,28.20
2014,07,13,14,27,28.30
2014,07,13,14,28,28.40
2014,07,13,14,29,28.40
2014,07,13,14,30,28.40
2014,07,13,14,31,28.40
2014,07,13,14,32,28.40
2014,07,13,14,33,28.40
2014,07,13,14,34,28.40
2014,07,13,14,35,28.40
2014,07,13,14,36,28.30
2014,07,13,14,37,28.30
2014,07,13,14,38,28.30
2014,07,13,14,39,28.30
2014,07,13,14,40,28.30
2014,07,13,14,41,28.20
2014,07,13,14,42,28.20
2014,07,13,14,43,28.20
2014,07,13,14,44,28.20
2014,07,13,14,45,28.30
2014,07,13,14,46,28.30
2014,07,13,14,47,28.30
2014,07,13,14,48,28.30
2014,07,13,14,49,28.30
2014,07,13,14,50,28.30
2014,07,13,14,51,28.30
2014,07,13,14,52,28.30
2014,07,13,14,53,28.40
2014,07,13,14,54,28.40
2014,07,13,14,55,28.50
2014,07,13,14,56,28.50
2014,07,13,14,57,28.50
2014,07,13,14,58,28.50
2014,07,13,14,59,28.50
2014,07,13,15,00,28.50
2014,07,13,15,01,28.50
2014,07,13,15,02,28.50
2014,07,13,15,03,28.60
2014,07,13,15,04,28.60
2014,07,13,15,05,28.70
2014,07,13,15,06,28.70
2014,07,13,15,07,28.80
2014,07,13,15,08,28.90
2014,07,13,15,09,29.00
2014,07,13,15,10,29.10
2014,07,13,15,11,29.10
2014,07,13,15,12,29.10
2014,07,13,15,13,29.00
2014,07,13,15,14,28.90
2014,07,13,15,15,28.80
2014,07,13,15,16,28.70
2014,07,13,15,17,28.70
2014,07,13,15,18,28.60
2014,07,13,15,19,28.60
2014,07,13,15,20,28.60
2014,07,13,15,21,28.60
2014,07,13,15,22,28.60
2014,07,13,15,23,28.70
2014,07,13,15,24,28.70
2014,07,13,15,25,28.80
2014,07,13,15,26,28.90
2014,07,13,15,27,28.90
2014,07,13,15,28,28.80
2014,07,13,15,29,28.70
2014,07,13,15,30,28.60
2014,07,13,15,31,28.50
2014,07,13,15,32,28.50
2014,07,13,15,33,28.40
2014,07,13,15,34,28.30
2014,07,13,15,35,28.10
2014,07,13,15,36,27.90
2014,07,13,15,37,27.80
2014,07,13,15,38,27.80
2014,07,13,15,39,27.80
2014,07,13,15,40,27.80
2014,07,13,15,41,27.80
2014,07,13,15,42,27.60
2014,07,13,15,43,27.40
2014,07,13,15,44,27.30
2014,07,13,15,45,27.20
2014,07,13,15,46,27.10
2014,07,13,15,47,27.00
2014,07,13,15,48,26.90
2014,07,13,15,49,26.80
2014,07,13,15,50,26.70
2014,07,13,15,51,26.60
2014,07,13,15,52,26.60
2014,07,13,15,53,26.60
2014,07,13,15,54,26.60
2014,07,13,15,55,26.50
2014,07,13,15,56,26.30
2014,07,13,15,57,26.20
2014,07,13,15,58,26.10
2014,07,13,15,59,26.10
2014,07,13,16,00,26.00
2014,07,13,16,01,25.90
2014,07,13,16,02,25.90
2014,07,13,16,03,26.00
2014,07,13,16,04,26.00
2014,07,13,16,05,26.10
2014,07,13,16,06,26.20
2014,07,13,16,07,26.20
2014,07,13,16,08,26.30
2014,07,13,16,09,26.30
2014,07,13,16,10,26.30
2014,07,13,16,11,26.20
2014,07,13,16,12,26.20
2014,07,13,16,13,26.10
2014,07,13,16,14,26.00
2014,07,13,16,15,25.90
2014,07,13,16,16,25.90
2014,07,13,16,17,25.80
2014,07,13,16,18,25.80
2014,07,13,16,19,25.90
2014,07,13,16,20,25.90
2014,07,13,16,21,26.00
2014,07,13,16,22,26.10
2014,07,13,16,23,26.20
2014,07,13,16,24,26.40
2014,07,13,16,25,26.50
2014,07,13,16,26,26.50
2014,07,13,16,27,26.60
2014,07,13,16,28,26.60
2014,07,13,16,29,26.60
2014,07,13,16,30,26.50
2014,07,13,16,31,26.50
2014,07,13,16,32,26.50
2014,07,13,16,33,26.40
2014,07,13,16,34,26.40
2014,07,13,16,35,26.50
2014,07,13,16,36,26.60
2014,07,13,16,37,26.60
2014,07,13,16,38,26.70
2014,07,13,16,39,26.80
2014,07,13,16,40,26.90
2014,07,13,16,41,27.00
2014,07,13,16,42,27.10
2014,07,13,16,43,27.30
2014,07,13,16,44,27.30
2014,07,13,16,45,27.20
2014,07,13,16,46,27.20
2014,07,13,16,47,27.20
2014,07,13,16,48,27.20
2014,07,13,16,49,27.20
2014,07,13,16,50,27.20
2014,07,13,16,51,27.30
2014,07,13,16,52,27.30
2014,07,13,16,53,27.30
2014,07,13,16,54,27.30
2014,07,13,16,55,27.30
2014,07,13,16,56,27.30
2014,07,13,16,57,27.20
2014,07,13,16,58,27.20
2014,07,13,16,59,27.10
2014,07,13,17,00,27.00
2014,07,13,17,01,27.00
2014,07,13,17,02,27.00
2014,07,13,17,03,27.00
2014,07,13,17,04,26.90
2014,07,13,17,05,26.90
2014,07,13,17,06,27.00
2014,07,13,17,07,27.00
2014,07,13,17,08,27.00
2014,07,13,17,09,27.10
2014,07,13,17,10,27.10
2014,07,13,17,11,27.20
2014,07,13,17,12,27.20
2014,07,13,17,13,27.20
2014,07,13,17,14,27.10
2014,07,13,17,15,27.10
2014,07,13,17,16,27.00
2014,07,13,17,17,27.00
2014,07,13,17,18,26.90
2014,07,13,17,19,26.80